Time,TemperatureF,DewpointF,PressureIn,WindDirection,WindDirectionDegrees,WindSpeedMPH,WindSpeedGustMPH,Humidity,HourlyPrecipIn,Conditions,Clouds,dailyrainin,SoftwareType,DateUTC
2013-03-05 00:02:00,36.0,34.0,-100.00,NE,45,4.0,5.0,90,-99.99,,,-99.99,,2013-03-05 08:02:00,
2013-03-05 00:11:00,36.0,33.0,-100.00,NE,45,4.0,5.0,90,-99.99,,,-99.99,,2013-03-05 08:11:00,
2013-03-05 00:21:00,36.0,33.0,-100.00,NE,45,4.0,5.0,90,-99.99,,,-99.99,,2013-03-05 08:21:00,
2013-03-05 00:31:00,36.0,33.0,-100.00,NE,45,4.0,5.0,90,-99.99,,,-99.99,,2013-03-05 08:31:00,
2013-03-05 00:42:00,36.0,34.0,-100.00,NE,45,6.0,7.0,91,-99.99,,,-99.99,,2013-03-05 08:42:00,
2013-03-05 00:52:00,36.0,34.0,-100.00,NE,45,6.0,7.0,91,-99.99,,,-99.99,,2013-03-05 08:52:00,
2013-03-05 01:01:00,36.0,34.0,-100.00,NE,45,4.0,4.0,92,-99.99,,,-99.99,,2013-03-05 09:01:00,
2013-03-05 01:11:00,36.0,34.0,-100.00,NE,45,4.0,6.0,92,-99.99,,,-99.99,,2013-03-05 09:11:00,
2013-03-05 01:21:00,36.0,34.0,-100.00,NE,45,4.0,6.0,92,-99.99,,,-99.99,,2013-03-05 09:21:00,
2013-03-05 01:31:00,36.0,34.0,-100.00,NE,45,4.0,5.0,93,-99.99,,,-99.99,,2013-03-05 09:31:00,
2013-03-05 01:42:00,36.0,34.0,-100.00,North,0,4.0,5.0,93,-99.99,,,-99.99,,2013-03-05 09:42:00,
2013-03-05 01:52:00,36.0,34.0,-100.00,North,-999,0.0,0.0,93,-99.99,,,-99.99,,2013-03-05 09:52:00,
2013-03-05 02:01:00,36.0,34.0,-100.00,North,-999,0.0,0.0,93,-99.99,,,-99.99,,2013-03-05 10:01:00,
2013-03-05 02:11:00,36.0,34.0,-100.00,NE,45,3.0,4.0,93,-99.99,,,-99.99,,2013-03-05 10:11:00,
2013-03-05 02:21:00,36.0,34.0,-100.00,NE,45,3.0,4.0,93,-99.99,,,-99.99,,2013-03-05 10:21:00,
2013-03-05 02:32:00,35.0,33.0,-100.00,NE,45,4.0,4.0,93,-99.99,,,-99.99,,2013-03-05 10:32:00,
2013-03-05 02:42:00,35.0,33.0,-100.00,NE,45,3.0,4.0,93,-99.99,,,-99.99,,2013-03-05 10:42:00,
2013-03-05 02:52:00,35.0,33.0,-100.00,NE,45,3.0,4.0,93,-99.99,,,-99.99,,2013-03-05 10:52:00,
2013-03-05 03:01:00,35.0,33.0,-100.00,NE,45,3.0,4.0,93,-99.99,,,-99.99,,2013-03-05 11:01:00,
2013-03-05 03:11:00,35.0,33.0,-100.00,NE,45,3.0,3.0,93,-99.99,,,-99.99,,2013-03-05 11:11:00,
2013-03-05 03:22:00,35.0,33.0,-100.00,NE,45,3.0,3.0,93,-99.99,,,-99.99,,2013-03-05 11:22:00,
2013-03-05 03:32:00,35.0,33.0,-100.00,NE,45,5.0,6.0,93,-99.99,,,-99.99,,2013-03-05 11:32:00,
2013-03-05 03:42:00,34.0,32.0,-100.00,NE,45,4.0,6.0,93,-99.99,,,-99.99,,2013-03-05 11:42:00,
2013-03-05 03:52:00,34.0,32.0,-100.00,North,0,5.0,7.0,93,-99.99,,,-99.99,,2013-03-05 11:52:00,
2013-03-05 04:02:00,34.0,32.0,-100.00,North,0,5.0,7.0,93,-99.99,,,-99.99,,2013-03-05 12:02:00,
2013-03-05 04:11:00,34.0,32.0,-100.00,North,0,3.0,4.0,93,-99.99,,,-99.99,,2013-03-05 12:11:00,
2013-03-05 04:22:00,34.0,32.0,-100.00,NE,45,4.0,5.0,93,-99.99,,,-99.99,,2013-03-05 12:22:00,
2013-03-05 04:32:00,34.0,32.0,-100.00,NE,45,4.0,5.0,93,-99.99,,,-99.99,,2013-03-05 12:32:00,
2013-03-05 04:42:00,34.0,32.0,-100.00,NE,45,3.0,4.0,93,-99.99,,,-99.99,,2013-03-05 12:42:00,
2013-03-05 04:52:00,34.0,32.0,-100.00,NE,45,3.0,4.0,93,-99.99,,,-99.99,,2013-03-05 12:52:00,
2013-03-05 05:02:00,34.0,32.0,-100.00,NE,45,3.0,4.0,93,-99.99,,,-99.99,,2013-03-05 13:02:00,
2013-03-05 05:11:00,34.0,32.0,-100.00,North,0,4.0,6.0,93,-99.99,,,-99.99,,2013-03-05 13:11:00,
2013-03-05 05:21:00,34.0,32.0,-100.00,North,0,4.0,6.0,93,-99.99,,,-99.99,,2013-03-05 13:21:00,
2013-03-05 05:31:00,34.0,32.0,-100.00,NE,45,4.0,5.0,93,-99.99,,,-99.99,,2013-03-05 13:31:00,
2013-03-05 05:42:00,34.0,32.0,-100.00,NE,45,3.0,4.0,93,-99.99,,,-99.99,,2013-03-05 13:42:00,
2013-03-05 05:52:00,34.0,32.0,-100.00,NE,45,3.0,4.0,93,-99.99,,,-99.99,,2013-03-05 13:52:00,
2013-03-05 06:02:00,34.0,32.0,-100.00,North,0,3.0,4.0,92,-99.99,,,-99.99,,2013-03-05 14:02:00,
2013-03-05 06:11:00,34.0,32.0,-100.00,NE,45,2.0,4.0,92,-99.99,,,-99.99,,2013-03-05 14:11:00,
2013-03-05 06:21:00,34.0,32.0,-100.00,NE,45,4.0,5.0,92,-99.99,,,-99.99,,2013-03-05 14:21:00,
2013-03-05 06:31:00,34.0,32.0,-100.00,NE,45,4.0,5.0,92,-99.99,,,-99.99,,2013-03-05 14:31:00,
2013-03-05 06:42:00,35.0,33.0,-100.00,NE,45,2.0,4.0,92,-99.99,,,-99.99,,2013-03-05 14:42:00,
2013-03-05 06:52:00,35.0,33.0,-100.00,NE,45,2.0,4.0,92,-99.99,,,-99.99,,2013-03-05 14:52:00,
2013-03-05 07:01:00,35.0,32.0,-100.00,North,-999,0.0,0.0,91,-99.99,,,-99.99,,2013-03-05 15:01:00,
2013-03-05 07:11:00,35.0,33.0,-100.00,SE,135,4.0,4.0,91,-99.99,,,-99.99,,2013-03-05 15:11:00,
2013-03-05 07:21:00,35.0,33.0,-100.00,SE,135,4.0,4.0,91,-99.99,,,-99.99,,2013-03-05 15:21:00,
2013-03-05 07:32:00,35.0,33.0,-100.00,South,180,3.0,3.0,91,-99.99,,,-99.99,,2013-03-05 15:32:00,
2013-03-05 07:42:00,36.0,33.0,-100.00,NE,45,0.0,1.0,91,-99.99,,,-99.99,,2013-03-05 15:42:00,
2013-03-05 07:52:00,36.0,34.0,-100.00,North,0,3.0,4.0,91,-99.99,,,-99.99,,2013-03-05 15:52:00,
2013-03-05 08:01:00,36.0,34.0,-100.00,North,0,3.0,4.0,91,-99.99,,,-99.99,,2013-03-05 16:01:00,
2013-03-05 08:11:00,37.0,35.0,-100.00,North,0,1.0,1.0,92,-99.99,,,-99.99,,2013-03-05 16:11:00,
2013-03-05 08:21:00,37.0,35.0,-100.00,North,0,1.0,1.0,92,-99.99,,,-99.99,,2013-03-05 16:21:00,
2013-03-05 08:32:00,37.0,35.0,-100.00,NE,45,1.0,1.0,92,-99.99,,,-99.99,,2013-03-05 16:32:00,
2013-03-05 08:41:00,38.0,36.0,-100.00,NE,45,3.0,4.0,92,-99.99,,,-99.99,,2013-03-05 16:41:00,
2013-03-05 08:52:00,38.0,36.0,-100.00,NE,45,3.0,4.0,92,-99.99,,,-99.99,,2013-03-05 16:52:00,
2013-03-05 09:01:00,38.0,36.0,-100.00,NE,45,3.0,3.0,92,-99.99,,,-99.99,,2013-03-05 17:01:00,
2013-03-05 09:11:00,38.0,36.0,-100.00,NE,45,1.0,1.0,92,-99.99,,,-99.99,,2013-03-05 17:11:00,
2013-03-05 09:21:00,38.0,36.0,-100.00,NE,45,1.0,1.0,92,-99.99,,,-99.99,,2013-03-05 17:21:00,
2013-03-05 09:32:00,39.0,37.0,-100.00,NE,45,3.0,3.0,92,-99.99,,,-99.99,,2013-03-05 17:32:00,
2013-03-05 09:41:00,39.0,37.0,-100.00,NE,45,3.0,4.0,92,-99.99,,,-99.99,,2013-03-05 17:41:00,
2013-03-05 09:52:00,39.0,37.0,-100.00,NE,45,3.0,4.0,92,-99.99,,,-99.99,,2013-03-05 17:52:00,
2013-03-05 10:01:00,40.0,37.0,-100.00,NE,45,1.0,3.0,92,-99.99,,,-99.99,,2013-03-05 18:01:00,
2013-03-05 10:11:00,40.0,38.0,-100.00,North,0,1.0,1.0,92,-99.99,,,-99.99,,2013-03-05 18:11:00,
2013-03-05 10:21:00,40.0,38.0,-100.00,North,0,1.0,1.0,92,-99.99,,,-99.99,,2013-03-05 18:21:00,
2013-03-05 10:32:00,40.0,37.0,-100.00,NE,45,5.0,6.0,92,-99.99,,,-99.99,,2013-03-05 18:32:00,
2013-03-05 10:42:00,40.0,38.0,-100.00,NE,45,4.0,5.0,92,-99.99,,,-99.99,,2013-03-05 18:42:00,
2013-03-05 10:53:00,41.0,38.0,-100.00,NE,45,4.0,6.0,91,-99.99,,,-99.99,,2013-03-05 18:53:00,
2013-03-05 11:01:00,41.0,38.0,-100.00,NE,45,4.0,6.0,91,-99.99,,,-99.99,,2013-03-05 19:01:00,
2013-03-05 11:11:00,41.0,38.0,-100.00,NE,45,3.0,4.0,89,-99.99,,,-99.99,,2013-03-05 19:11:00,
2013-03-05 11:21:00,41.0,38.0,-100.00,NE,45,3.0,4.0,89,-99.99,,,-99.99,,2013-03-05 19:21:00,
2013-03-05 11:31:00,41.0,38.0,-100.00,North,0,3.0,3.0,89,-99.99,,,-99.99,,2013-03-05 19:31:00,
2013-03-05 11:42:00,41.0,39.0,-100.00,North,0,1.0,2.0,90,-99.99,,,-99.99,,2013-03-05 19:42:00,
2013-03-05 11:52:00,42.0,39.0,-100.00,North,0,1.0,3.0,90,-99.99,,,-99.99,,2013-03-05 19:52:00,
2013-03-05 12:01:00,42.0,39.0,-100.00,North,0,1.0,3.0,90,-99.99,,,-99.99,,2013-03-05 20:01:00,
2013-03-05 12:11:00,42.0,39.0,-100.00,NW,315,1.0,3.0,89,-99.99,,,-99.99,,2013-03-05 20:11:00,
2013-03-05 12:21:00,42.0,39.0,-100.00,NW,315,1.0,3.0,89,-99.99,,,-99.99,,2013-03-05 20:21:00,
2013-03-05 12:32:00,42.0,39.0,-100.00,NE,45,4.0,5.0,89,-99.99,,,-99.99,,2013-03-05 20:32:00,
2013-03-05 12:41:00,43.0,40.0,-100.00,NE,45,4.0,4.0,89,-99.99,,,-99.99,,2013-03-05 20:41:00,
2013-03-05 12:52:00,43.0,40.0,-100.00,NE,45,4.0,4.0,89,-99.99,,,-99.99,,2013-03-05 20:52:00,
2013-03-05 13:01:00,43.0,40.0,-100.00,East,90,3.0,3.0,90,-99.99,,,-99.99,,2013-03-05 21:01:00,
2013-03-05 13:11:00,43.0,41.0,-100.00,NE,45,3.0,3.0,90,-99.99,,,-99.99,,2013-03-05 21:11:00,
2013-03-05 13:21:00,43.0,41.0,-100.00,NE,45,3.0,3.0,90,-99.99,,,-99.99,,2013-03-05 21:21:00,
2013-03-05 13:31:00,43.0,40.0,-100.00,NE,45,2.0,3.0,89,-99.99,,,-99.99,,2013-03-05 21:31:00,
2013-03-05 13:32:00,44.0,41.0,-100.00,SW,225,1.0,3.0,88,-99.99,,,-99.99,,2013-03-05 21:32:00,
2013-03-05 13:41:00,44.0,41.0,-100.00,NE,45,1.0,1.0,89,-99.99,,,-99.99,,2013-03-05 21:41:00,
2013-03-05 13:52:00,44.0,41.0,-100.00,South,180,1.0,2.0,89,-99.99,,,-99.99,,2013-03-05 21:52:00,
2013-03-05 14:01:00,44.0,41.0,-100.00,South,180,1.0,2.0,89,-99.99,,,-99.99,,2013-03-05 22:01:00,
2013-03-05 14:11:00,44.0,41.0,-100.00,SW,225,1.0,3.0,88,-99.99,,,-99.99,,2013-03-05 22:11:00,
2013-03-05 14:21:00,44.0,41.0,-100.00,SW,225,1.0,3.0,88,-99.99,,,-99.99,,2013-03-05 22:21:00,
2013-03-05 14:42:00,43.0,40.0,-100.00,West,270,4.0,5.0,88,-99.99,,,-99.99,,2013-03-05 22:42:00,
2013-03-05 14:52:00,43.0,40.0,-100.00,West,270,4.0,5.0,88,-99.99,,,-99.99,,2013-03-05 22:52:00,
2013-03-05 15:01:00,43.0,40.0,-100.00,West,270,4.0,5.0,88,-99.99,,,-99.99,,2013-03-05 23:01:00,
2013-03-05 15:11:00,43.0,40.0,-100.00,NW,315,3.0,5.0,88,-99.99,,,-99.99,,2013-03-05 23:11:00,
2013-03-05 15:21:00,43.0,40.0,-100.00,NW,315,3.0,4.0,88,-99.99,,,-99.99,,2013-03-05 23:21:00,
2013-03-05 15:32:00,43.0,40.0,-100.00,NW,315,3.0,5.0,88,-99.99,,,-99.99,,2013-03-05 23:32:00,
2013-03-05 15:41:00,43.0,40.0,-100.00,NW,315,3.0,5.0,88,-99.99,,,-99.99,,2013-03-05 23:41:00,
2013-03-05 15:52:00,43.0,40.0,-100.00,NE,45,0.0,1.0,88,-99.99,,,-99.99,,2013-03-05 23:52:00,
2013-03-05 16:01:00,43.0,40.0,-100.00,NE,45,1.0,3.0,89,-99.99,,,-99.99,,2013-03-06 00:01:00,
2013-03-05 16:11:00,43.0,40.0,-100.00,NE,45,1.0,3.0,89,-99.99,,,-99.99,,2013-03-06 00:11:00,
2013-03-05 16:21:00,43.0,40.0,-100.00,North,0,1.0,1.0,89,-99.99,,,-99.99,,2013-03-06 00:21:00,
2013-03-05 16:32:00,43.0,41.0,-100.00,NE,45,1.0,1.0,90,-99.99,,,-99.99,,2013-03-06 00:32:00,
2013-03-05 16:41:00,43.0,41.0,-100.00,NE,45,1.0,1.0,90,-99.99,,,-99.99,,2013-03-06 00:41:00,
2013-03-05 16:52:00,43.0,40.0,-100.00,NE,45,0.0,1.0,90,-99.99,,,-99.99,,2013-03-06 00:52:00,
2013-03-05 17:01:00,43.0,41.0,-100.00,North,-999,0.0,0.0,90,-99.99,,,-99.99,,2013-03-06 01:01:00,
2013-03-05 17:11:00,43.0,41.0,-100.00,North,-999,0.0,0.0,90,-99.99,,,-99.99,,2013-03-06 01:11:00,
2013-03-05 17:21:00,43.0,41.0,-100.00,NE,45,1.0,2.0,90,-99.99,,,-99.99,,2013-03-06 01:21:00,
2013-03-05 17:31:00,43.0,41.0,-100.00,NE,45,1.0,2.0,90,-99.99,,,-99.99,,2013-03-06 01:31:00,
2013-03-05 17:41:00,43.0,41.0,-100.00,NE,45,1.0,2.0,90,-99.99,,,-99.99,,2013-03-06 01:41:00,
2013-03-05 17:52:00,43.0,41.0,-100.00,SE,135,1.0,3.0,91,-99.99,,,-99.99,,2013-03-06 01:52:00,
2013-03-05 18:01:00,43.0,41.0,-100.00,East,90,1.0,1.0,91,-99.99,,,-99.99,,2013-03-06 02:01:00,
2013-03-05 18:11:00,43.0,41.0,-100.00,East,90,1.0,1.0,91,-99.99,,,-99.99,,2013-03-06 02:11:00,
2013-03-05 18:21:00,43.0,41.0,-100.00,SE,135,0.0,1.0,91,-99.99,,,-99.99,,2013-03-06 02:21:00,
2013-03-05 18:31:00,43.0,41.0,-100.00,SE,135,1.0,1.0,91,-99.99,,,-99.99,,2013-03-06 02:31:00,
2013-03-05 18:41:00,43.0,41.0,-100.00,SE,135,1.0,1.0,91,-99.99,,,-99.99,,2013-03-06 02:41:00,
2013-03-05 18:52:00,43.0,40.0,-100.00,East,90,0.0,1.0,91,-99.99,,,-99.99,,2013-03-06 02:52:00,
2013-03-05 19:01:00,43.0,40.0,-100.00,NE,45,1.0,1.0,91,-99.99,,,-99.99,,2013-03-06 03:01:00,
2013-03-05 19:11:00,43.0,40.0,-100.00,NE,45,1.0,1.0,91,-99.99,,,-99.99,,2013-03-06 03:11:00,
2013-03-05 19:21:00,43.0,40.0,-100.00,North,-999,0.0,0.0,91,-99.99,,,-99.99,,2013-03-06 03:21:00,
2013-03-05 19:31:00,43.0,40.0,-100.00,NE,45,1.0,1.0,91,-99.99,,,-99.99,,2013-03-06 03:31:00,
2013-03-05 19:41:00,43.0,40.0,-100.00,NE,45,1.0,1.0,91,-99.99,,,-99.99,,2013-03-06 03:41:00,
2013-03-05 19:52:00,42.0,40.0,-100.00,East,90,1.0,1.0,91,-99.99,,,-99.99,,2013-03-06 03:52:00,
2013-03-05 20:01:00,42.0,40.0,-100.00,North,0,1.0,1.0,91,-99.99,,,-99.99,,2013-03-06 04:01:00,
2013-03-05 20:11:00,42.0,40.0,-100.00,North,0,1.0,1.0,91,-99.99,,,-99.99,,2013-03-06 04:11:00,
2013-03-05 20:21:00,43.0,40.0,-100.00,SE,135,0.0,1.0,91,-99.99,,,-99.99,,2013-03-06 04:21:00,
2013-03-05 20:32:00,43.0,40.0,-100.00,North,-999,0.0,0.0,91,-99.99,,,-99.99,,2013-03-06 04:32:00,
2013-03-05 20:41:00,43.0,40.0,-100.00,North,-999,0.0,0.0,91,-99.99,,,-99.99,,2013-03-06 04:41:00,
2013-03-05 20:52:00,43.0,40.0,-100.00,East,90,0.0,1.0,91,-99.99,,,-99.99,,2013-03-06 04:52:00,
2013-03-05 21:01:00,42.0,40.0,-100.00,North,-999,0.0,0.0,91,-99.99,,,-99.99,,2013-03-06 05:01:00,
2013-03-05 21:11:00,42.0,40.0,-100.00,North,-999,0.0,0.0,91,-99.99,,,-99.99,,2013-03-06 05:11:00,
2013-03-05 21:22:00,42.0,40.0,-100.00,North,-999,0.0,0.0,91,-99.99,,,-99.99,,2013-03-06 05:22:00,
2013-03-05 21:32:00,42.0,40.0,-100.00,East,90,0.0,1.0,91,-99.99,,,-99.99,,2013-03-06 05:32:00,
2013-03-05 21:42:00,42.0,40.0,-100.00,East,90,0.0,1.0,91,-99.99,,,-99.99,,2013-03-06 05:42:00,
2013-03-05 21:52:00,42.0,40.0,-100.00,NE,45,1.0,1.0,91,-99.99,,,-99.99,,2013-03-06 05:52:00,
2013-03-05 22:01:00,42.0,40.0,-100.00,North,-999,0.0,0.0,91,-99.99,,,-99.99,,2013-03-06 06:01:00,
2013-03-05 22:11:00,42.0,40.0,-100.00,North,-999,0.0,0.0,91,-99.99,,,-99.99,,2013-03-06 06:11:00,
2013-03-05 22:22:00,42.0,40.0,-100.00,SE,135,1.0,2.0,91,-99.99,,,-99.99,,2013-03-06 06:22:00,
2013-03-05 22:31:00,42.0,40.0,-100.00,North,-999,0.0,0.0,92,-99.99,,,-99.99,,2013-03-06 06:31:00,
2013-03-05 22:41:00,42.0,40.0,-100.00,North,-999,0.0,0.0,92,-99.99,,,-99.99,,2013-03-06 06:41:00,
2013-03-05 22:52:00,42.0,40.0,-100.00,North,-999,0.0,0.0,92,-99.99,,,-99.99,,2013-03-06 06:52:00,
2013-03-05 23:01:00,42.0,40.0,-100.00,North,-999,0.0,0.0,92,-99.99,,,-99.99,,2013-03-06 07:01:00,
2013-03-05 23:11:00,42.0,40.0,-100.00,North,-999,0.0,0.0,92,-99.99,,,-99.99,,2013-03-06 07:11:00,
2013-03-05 23:22:00,42.0,40.0,-100.00,North,-999,0.0,0.0,92,-99.99,,,-99.99,,2013-03-06 07:22:00,
2013-03-05 23:31:00,42.0,40.0,-100.00,North,-999,0.0,0.0,92,-99.99,,,-99.99,,2013-03-06 07:31:00,
2013-03-05 23:42:00,42.0,40.0,-100.00,North,-999,0.0,0.0,92,-99.99,,,-99.99,,2013-03-06 07:42:00,
2013-03-05 23:52:00,42.0,40.0,-100.00,North,-999,0.0,0.0,92,-99.99,,,-99.99,,2013-03-06 07:52:00,